AVA8457 SKBO-SKPS

Flight info

Callsign AVA8457
Flight time N/A
Altitude 31000
Route VAPOM4R VAPOM DCT OREGA DCT PPN DCT MER
Aircraft A320/M-SDE3FGHIRWY/LB1

Departure

Time 2026-05-05 01:24
Airport El Dorado International Airport (SKBO)

Arrival

Time N/A
Airport Antonio Nariño Airport (SKPS)
Time Latitude Longitude Altitude Speed Heading
2026-05-05 00:46 4.69819 -74.14584 8366 ft 0 kts 67°
2026-05-05 01:12 4.69816 -74.14590 8366 ft 4 kts 65°
2026-05-05 01:13 4.69802 -74.14612 8366 ft 4 kts 38°
2026-05-05 01:13 4.69783 -74.14620 8366 ft 4 kts 327°
2026-05-05 01:13 4.69775 -74.14613 8366 ft 1 kts 307°
2026-05-05 01:13 4.69775 -74.14612 8366 ft 0 kts 307°
2026-05-05 01:17 4.69786 -74.14627 8366 ft 6 kts 307°
2026-05-05 01:17 4.69829 -74.14683 8366 ft 14 kts 307°
2026-05-05 01:17 4.69880 -74.14758 8366 ft 12 kts 299°
2026-05-05 01:17 4.69875 -74.14826 8366 ft 9 kts 243°
2026-05-05 01:18 4.69879 -74.14884 8366 ft 8 kts 281°
2026-05-05 01:18 4.69862 -74.14929 8366 ft 8 kts 234°
2026-05-05 01:18 4.69871 -74.15000 8366 ft 14 kts 304°
2026-05-05 01:18 4.69945 -74.15095 8366 ft 19 kts 306°
2026-05-05 01:19 4.70024 -74.15202 8366 ft 19 kts 307°
2026-05-05 01:19 4.70105 -74.15309 8365 ft 20 kts 307°
2026-05-05 01:19 4.70189 -74.15421 8365 ft 20 kts 307°
2026-05-05 01:19 4.70275 -74.15534 8365 ft 21 kts 307°
2026-05-05 01:20 4.70363 -74.15649 8365 ft 21 kts 307°
2026-05-05 01:20 4.70452 -74.15767 8365 ft 21 kts 307°
2026-05-05 01:20 4.70542 -74.15886 8366 ft 22 kts 307°
2026-05-05 01:20 4.70634 -74.16006 8366 ft 22 kts 307°
2026-05-05 01:21 4.70726 -74.16128 8366 ft 22 kts 307°
2026-05-05 01:21 4.70819 -74.16250 8366 ft 22 kts 307°
2026-05-05 01:21 4.70914 -74.16376 8366 ft 23 kts 307°
2026-05-05 01:21 4.71011 -74.16504 8366 ft 23 kts 307°
2026-05-05 01:22 4.71109 -74.16634 8366 ft 24 kts 307°
2026-05-05 01:22 4.71204 -74.16760 8366 ft 17 kts 307°
2026-05-05 01:22 4.71247 -74.16844 8366 ft 11 kts 260°
2026-05-05 01:22 4.71192 -74.16888 8365 ft 11 kts 192°
2026-05-05 01:23 4.71104 -74.16887 8363 ft 14 kts 176°
2026-05-05 01:23 4.71016 -74.16871 8363 ft 8 kts 143°
2026-05-05 01:23 4.71011 -74.16864 8363 ft 0 kts 128°
2026-05-05 01:23 4.70933 -74.16762 8363 ft 51 kts 127°
2026-05-05 01:24 4.70583 -74.16297 8366 ft 114 kts 127°
2026-05-05 01:24 4.69996 -74.15521 8364 ft 164 kts 127°
2026-05-05 01:24 4.69254 -74.14533 8791 ft 176 kts 126°
2026-05-05 01:24 4.68491 -74.13600 9620 ft 174 kts 137°
2026-05-05 01:25 4.67346 -74.13104 10070 ft 195 kts 179°
2026-05-05 01:25 4.66047 -74.13599 10333 ft 214 kts 221°
2026-05-05 01:25 4.65052 -74.14804 10471 ft 236 kts 235°
2026-05-05 01:25 4.64165 -74.16260 10702 ft 252 kts 238°
2026-05-05 01:26 4.63280 -74.17790 11310 ft 254 kts 238°
2026-05-05 01:26 4.62364 -74.19321 11925 ft 257 kts 237°
2026-05-05 01:26 4.61527 -74.20911 12536 ft 261 kts 252°
2026-05-05 01:26 4.61141 -74.22761 12790 ft 283 kts 259°
2026-05-05 01:27 4.60779 -74.24781 12961 ft 306 kts 259°
2026-05-05 01:27 4.60353 -74.26950 13112 ft 329 kts 254°
2026-05-05 01:27 4.59473 -74.29142 13229 ft 350 kts 244°
2026-05-05 01:27 4.58363 -74.31398 13349 ft 371 kts 242°
2026-05-05 01:28 4.57139 -74.33737 13610 ft 385 kts 241°
2026-05-05 01:28 4.55883 -74.36093 14088 ft 391 kts 241°
2026-05-05 01:28 4.54598 -74.38509 14507 ft 395 kts 241°
2026-05-05 01:28 4.53310 -74.40958 15010 ft 399 kts 241°
2026-05-05 01:29 4.52028 -74.43434 15488 ft 402 kts 242°
2026-05-05 01:29 4.50745 -74.45941 15979 ft 406 kts 242°
2026-05-05 01:29 4.49460 -74.48468 16465 ft 409 kts 242°
2026-05-05 01:29 4.48161 -74.51020 16895 ft 413 kts 242°
2026-05-05 01:30 4.46846 -74.53594 17364 ft 417 kts 242°
2026-05-05 01:30 4.45518 -74.56187 17830 ft 420 kts 242°
2026-05-05 01:30 4.44179 -74.58806 18294 ft 424 kts 242°
2026-05-05 01:30 4.42831 -74.61443 18704 ft 427 kts 242°
2026-05-05 01:31 4.41469 -74.64098 19102 ft 430 kts 242°
2026-05-05 01:31 4.40097 -74.66770 19462 ft 433 kts 242°
2026-05-05 01:31 4.38716 -74.69457 19696 ft 435 kts 242°
2026-05-05 01:31 4.37328 -74.72155 19979 ft 437 kts 242°
2026-05-05 01:32 4.35932 -74.74867 20394 ft 439 kts 242°
2026-05-05 01:32 4.34527 -74.77596 20795 ft 442 kts 242°
2026-05-05 01:32 4.33114 -74.80338 21170 ft 444 kts 242°
2026-05-05 01:32 4.31690 -74.83097 21554 ft 447 kts 242°
2026-05-05 01:33 4.30258 -74.85871 21939 ft 450 kts 242°
2026-05-05 01:33 4.28820 -74.88662 22312 ft 453 kts 242°
2026-05-05 01:33 4.27374 -74.91473 22687 ft 455 kts 242°
2026-05-05 01:33 4.25920 -74.94297 23038 ft 458 kts 242°
2026-05-05 01:34 4.24457 -74.97137 23391 ft 460 kts 242°
2026-05-05 01:34 4.22983 -74.99994 23721 ft 463 kts 242°
2026-05-05 01:34 4.21500 -75.02861 24013 ft 465 kts 242°
2026-05-05 01:34 4.19848 -75.05593 24313 ft 465 kts 233°
2026-05-05 01:35 4.17911 -75.08190 24611 ft 466 kts 232°
2026-05-05 01:35 4.15966 -75.10793 24939 ft 467 kts 232°
2026-05-05 01:35 4.14020 -75.13400 25241 ft 469 kts 232°
2026-05-05 01:35 4.12034 -75.16057 25502 ft 470 kts 232°
2026-05-05 01:36 4.10096 -75.18642 25791 ft 471 kts 232°
2026-05-05 01:36 4.08123 -75.21271 26087 ft 473 kts 232°
2026-05-05 01:36 4.06144 -75.23909 26383 ft 474 kts 232°
2026-05-05 01:36 4.04162 -75.26558 26660 ft 476 kts 232°
2026-05-05 01:37 4.02173 -75.29219 26912 ft 478 kts 232°
2026-05-05 01:37 4.00179 -75.31886 27185 ft 479 kts 232°
2026-05-05 01:37 3.98178 -75.34561 27424 ft 481 kts 232°
2026-05-05 01:37 3.96168 -75.37243 27722 ft 482 kts 232°
2026-05-05 01:38 3.94151 -75.39927 27952 ft 484 kts 232°
2026-05-05 01:38 3.92128 -75.42625 28204 ft 485 kts 232°
2026-05-05 01:38 3.90100 -75.45334 28458 ft 487 kts 232°
2026-05-05 01:38 3.88057 -75.48022 28973 ft 479 kts 229°
2026-05-05 01:39 3.85808 -75.50410 29939 ft 465 kts 221°
2026-05-05 01:39 3.83336 -75.52465 30465 ft 459 kts 217°
2026-05-05 01:39 3.80835 -75.54439 30889 ft 457 kts 217°
2026-05-05 01:39 3.78332 -75.56405 31073 ft 456 kts 217°
2026-05-05 01:40 3.75846 -75.58356 30693 ft 453 kts 217°
2026-05-05 01:40 3.73363 -75.60304 30286 ft 454 kts 217°
2026-05-05 01:40 3.70609 -75.62469 30096 ft 455 kts 217°
2026-05-05 01:41 3.65622 -75.66404 30162 ft 458 kts 217°
2026-05-05 01:41 3.60631 -75.70346 30163 ft 453 kts 217°
2026-05-05 01:42 3.55726 -75.74206 30156 ft 447 kts 217°
2026-05-05 01:42 3.50872 -75.78019 30161 ft 446 kts 217°
2026-05-05 01:43 3.46003 -75.81862 30194 ft 446 kts 217°
2026-05-05 01:43 3.41132 -75.85707 30188 ft 446 kts 217°
2026-05-05 01:44 3.36261 -75.89541 30192 ft 445 kts 217°
2026-05-05 01:44 3.31416 -75.93346 30224 ft 441 kts 217°
2026-05-05 01:45 3.26613 -75.97122 30219 ft 438 kts 217°
2026-05-05 01:45 3.21841 -76.00886 30220 ft 436 kts 217°
2026-05-05 01:46 3.17086 -76.04635 30209 ft 435 kts 217°
2026-05-05 01:46 3.12337 -76.08373 30177 ft 434 kts 217°
2026-05-05 01:47 3.07594 -76.12103 30200 ft 433 kts 217°
2026-05-05 01:47 3.02851 -76.15829 30194 ft 434 kts 217°
2026-05-05 01:48 2.98106 -76.19558 30187 ft 434 kts 217°
2026-05-05 01:48 2.93358 -76.23296 30161 ft 435 kts 217°
2026-05-05 01:49 2.88603 -76.27044 30157 ft 435 kts 217°
2026-05-05 01:49 2.83837 -76.30788 30161 ft 436 kts 216°
2026-05-05 01:50 2.79100 -76.34511 30180 ft 436 kts 217°
2026-05-05 01:50 2.74334 -76.38271 30157 ft 437 kts 216°
2026-05-05 01:51 2.69559 -76.42029 30160 ft 436 kts 217°
2026-05-05 01:51 2.64779 -76.45777 30178 ft 437 kts 217°
2026-05-05 01:52 2.59999 -76.49526 30174 ft 437 kts 216°
2026-05-05 01:52 2.55227 -76.53283 30174 ft 437 kts 217°
2026-05-05 01:53 2.52839 -76.55167 30034 ft 439 kts 217°
2026-05-05 01:53 2.50437 -76.57058 29590 ft 438 kts 217°
2026-05-05 01:53 2.48043 -76.58938 29334 ft 438 kts 217°
2026-05-05 01:53 2.45645 -76.60819 29072 ft 438 kts 217°
2026-05-05 01:54 2.43249 -76.62709 28816 ft 439 kts 217°
2026-05-05 01:54 2.40867 -76.64626 28433 ft 441 kts 218°
2026-05-05 01:54 2.38467 -76.66585 27410 ft 450 kts 218°
2026-05-05 01:54 2.36060 -76.68562 26889 ft 445 kts 218°
2026-05-05 01:55 2.33674 -76.70524 25707 ft 446 kts 218°
2026-05-05 01:55 2.31266 -76.72501 24563 ft 447 kts 218°
2026-05-05 01:55 2.28872 -76.74460 24049 ft 444 kts 218°
2026-05-05 01:55 2.26485 -76.76408 23254 ft 440 kts 218°
2026-05-05 01:56 2.24121 -76.78329 22558 ft 436 kts 218°
2026-05-05 01:56 2.21777 -76.80232 21886 ft 433 kts 218°
2026-05-05 01:56 2.19438 -76.82135 21231 ft 434 kts 218°
2026-05-05 01:56 2.17100 -76.84039 20586 ft 433 kts 218°
2026-05-05 01:57 2.14768 -76.85938 19958 ft 432 kts 217°
2026-05-05 01:57 2.12451 -76.87822 19580 ft 423 kts 218°
2026-05-05 01:57 2.10244 -76.89619 19447 ft 395 kts 218°
2026-05-05 01:57 2.08184 -76.91298 19355 ft 370 kts 218°
2026-05-05 01:58 2.06247 -76.92875 19236 ft 348 kts 218°
2026-05-05 01:58 2.04421 -76.94361 18991 ft 331 kts 218°
2026-05-05 01:58 2.02654 -76.95800 18574 ft 324 kts 218°
2026-05-05 01:58 2.00916 -76.97216 18058 ft 321 kts 218°
2026-05-05 01:59 1.99199 -76.98617 17509 ft 317 kts 217°
2026-05-05 01:59 1.97489 -77.00009 17097 ft 316 kts 217°
2026-05-05 01:59 1.95790 -77.01391 16823 ft 314 kts 217°
2026-05-05 01:59 1.94103 -77.02763 16556 ft 312 kts 217°
2026-05-05 02:00 1.92422 -77.04129 16294 ft 310 kts 217°
2026-05-05 02:00 1.90753 -77.05485 16021 ft 309 kts 217°
2026-05-05 02:00 1.89091 -77.06836 15746 ft 307 kts 217°
2026-05-05 02:00 1.87437 -77.08181 15488 ft 306 kts 217°
2026-05-05 02:01 1.85788 -77.09521 15212 ft 304 kts 217°
2026-05-05 02:01 1.84149 -77.10854 14934 ft 303 kts 217°
2026-05-05 02:01 1.82539 -77.12163 14684 ft 302 kts 217°
2026-05-05 02:01 1.80894 -77.13500 14412 ft 300 kts 217°
2026-05-05 02:02 1.79294 -77.14793 14199 ft 299 kts 214°
2026-05-05 02:02 1.77529 -77.15868 13995 ft 297 kts 206°
2026-05-05 02:02 1.75707 -77.16844 13695 ft 297 kts 206°
2026-05-05 02:02 1.73894 -77.17812 13416 ft 294 kts 206°
2026-05-05 02:03 1.72095 -77.18773 13137 ft 292 kts 206°
2026-05-05 02:03 1.70306 -77.19729 12877 ft 291 kts 206°
2026-05-05 02:03 1.68530 -77.20682 12610 ft 289 kts 206°
2026-05-05 02:03 1.66763 -77.21632 12346 ft 288 kts 206°
2026-05-05 02:04 1.65006 -77.22576 12079 ft 286 kts 206°
2026-05-05 02:04 1.63256 -77.23513 11837 ft 284 kts 205°
2026-05-05 02:04 1.61526 -77.24438 11661 ft 279 kts 205°
2026-05-05 02:04 1.59841 -77.25341 11540 ft 271 kts 205°
2026-05-05 02:05 1.58208 -77.26219 11415 ft 263 kts 205°
2026-05-05 02:05 1.56619 -77.27071 11299 ft 256 kts 205°
2026-05-05 02:05 1.55070 -77.27897 11183 ft 249 kts 205°
2026-05-05 02:05 1.53567 -77.28697 11022 ft 242 kts 205°
2026-05-05 02:06 1.52077 -77.29483 10719 ft 244 kts 204°
2026-05-05 02:06 1.50512 -77.30270 10131 ft 259 kts 203°
2026-05-05 02:06 1.48886 -77.31075 9731 ft 258 kts 204°
2026-05-05 02:06 1.47316 -77.31855 9476 ft 246 kts 205°
2026-05-05 02:07 1.45826 -77.32599 9263 ft 234 kts 205°
2026-05-05 02:07 1.44396 -77.33316 9086 ft 225 kts 204°
2026-05-05 02:07 1.43038 -77.33998 8995 ft 213 kts 205°
2026-05-05 02:07 1.41723 -77.34658 9001 ft 210 kts 204°
2026-05-05 02:08 1.40430 -77.35304 8912 ft 205 kts 205°
2026-05-05 02:08 1.39145 -77.35945 8820 ft 205 kts 204°
2026-05-05 02:08 1.37821 -77.36472 8801 ft 205 kts 189°
2026-05-05 02:08 1.36424 -77.36461 8526 ft 198 kts 165°
2026-05-05 02:09 1.35219 -77.35906 8257 ft 183 kts 143°
2026-05-05 02:09 1.34403 -77.35041 8066 ft 167 kts 124°
2026-05-05 02:09 1.33948 -77.34002 7817 ft 163 kts 104°
2026-05-05 02:09 1.33867 -77.32879 7574 ft 163 kts 85°
2026-05-05 02:10 1.34163 -77.31793 7366 ft 163 kts 65°
2026-05-05 02:10 1.34803 -77.30865 7122 ft 163 kts 45°
2026-05-05 02:10 1.35708 -77.30213 6888 ft 164 kts 26°
2026-05-05 02:10 1.36805 -77.29852 6641 ft 163 kts 15°
2026-05-05 02:11 1.37880 -77.29570 6380 ft 161 kts 17°
2026-05-05 02:11 1.39087 -77.29264 6377 ft 203 kts 15°
2026-05-05 02:11 1.40521 -77.28870 7069 ft 222 kts 15°
2026-05-05 02:11 1.42092 -77.28434 7504 ft 243 kts 15°
2026-05-05 02:12 1.43729 -77.27976 8165 ft 247 kts 17°
2026-05-05 02:12 1.47128 -77.27167 9547 ft 256 kts
2026-05-05 02:12 1.48898 -77.27438 10245 ft 260 kts 346°
2026-05-05 02:13 1.50619 -77.28049 10860 ft 265 kts 339°
2026-05-05 02:13 1.52319 -77.28771 11544 ft 267 kts 339°
2026-05-05 02:13 1.54100 -77.29329 11833 ft 268 kts 349°
2026-05-05 02:13 1.55904 -77.29758 12072 ft 267 kts 349°
2026-05-05 02:14 1.57714 -77.30187 12149 ft 267 kts 349°
2026-05-05 02:14 1.59524 -77.30619 12164 ft 267 kts 349°
2026-05-05 02:14 1.61328 -77.31050 12161 ft 266 kts 349°
2026-05-05 02:14 1.63130 -77.31481 12162 ft 266 kts 349°
2026-05-05 02:15 1.64937 -77.31912 12117 ft 267 kts 349°
2026-05-05 02:15 1.66744 -77.32344 12120 ft 267 kts 349°
2026-05-05 02:15 1.68603 -77.32788 12122 ft 284 kts 349°
2026-05-05 02:15 1.70547 -77.33251 12120 ft 289 kts 349°
2026-05-05 02:16 1.72505 -77.33720 12118 ft 290 kts 349°
2026-05-05 02:16 1.74467 -77.34191 12119 ft 291 kts 349°
2026-05-05 02:16 1.76431 -77.34661 12118 ft 290 kts 349°
2026-05-05 02:16 1.78386 -77.35172 12116 ft 291 kts 342°
2026-05-05 02:17 1.80210 -77.36058 12092 ft 294 kts 328°
2026-05-05 02:17 1.81763 -77.37384 12095 ft 296 kts 312°
2026-05-05 02:17 1.82928 -77.39043 12081 ft 296 kts 297°
2026-05-05 02:17 1.83669 -77.40986 12086 ft 296 kts 282°
2026-05-05 02:18 1.84031 -77.42983 12081 ft 296 kts 279°
2026-05-05 02:18 1.84378 -77.45005 12078 ft 291 kts 279°
2026-05-05 02:18 1.84725 -77.46996 12082 ft 294 kts 279°
2026-05-05 02:18 1.85077 -77.49015 12081 ft 296 kts 279°
2026-05-05 02:19 1.85435 -77.51041 12079 ft 296 kts 279°
2026-05-05 02:19 1.85794 -77.53069 12056 ft 297 kts 279°
2026-05-05 02:19 1.86153 -77.55092 12059 ft 295 kts 279°
2026-05-05 02:19 1.86520 -77.57113 12058 ft 296 kts 283°
2026-05-05 02:20 1.87334 -77.58981 12053 ft 294 kts 307°
2026-05-05 02:20 1.88829 -77.60348 12054 ft 291 kts 333°
2026-05-05 02:20 1.90732 -77.60936 12054 ft 286 kts
2026-05-05 02:20 1.92643 -77.60587 12057 ft 279 kts 30°
2026-05-05 02:21 1.94091 -77.59368 12044 ft 272 kts 59°
2026-05-05 02:21 1.94768 -77.57633 12042 ft 269 kts 84°
2026-05-05 02:21 1.94718 -77.55775 12047 ft 269 kts 103°
2026-05-05 02:21 1.94018 -77.54057 12043 ft 269 kts 123°
2026-05-05 02:22 1.92710 -77.52730 12053 ft 271 kts 146°
2026-05-05 02:22 1.90959 -77.52025 12058 ft 275 kts 164°
2026-05-05 02:22 1.89092 -77.51592 12076 ft 276 kts 166°
2026-05-05 02:22 1.87267 -77.51046 12078 ft 273 kts 150°
2026-05-05 02:23 1.85785 -77.49901 12076 ft 270 kts 128°
2026-05-05 02:23 1.84972 -77.48246 12074 ft 267 kts 98°
2026-05-05 02:23 1.85190 -77.46422 12079 ft 270 kts 68°
2026-05-05 02:23 1.86289 -77.44893 12074 ft 275 kts 44°
2026-05-05 02:24 1.87926 -77.43895 12074 ft 280 kts 22°
2026-05-05 02:24 1.89822 -77.43538 12069 ft 284 kts
2026-05-05 02:24 1.91774 -77.43901 12070 ft 290 kts 340°
2026-05-05 02:24 1.93487 -77.44970 12071 ft 293 kts 316°
2026-05-05 02:25 1.94612 -77.46655 12062 ft 295 kts 289°
2026-05-05 02:25 1.95123 -77.48639 12066 ft 296 kts 281°
2026-05-05 02:25 1.95533 -77.50655 12061 ft 296 kts 281°
2026-05-05 02:25 1.95915 -77.52677 12037 ft 296 kts 280°
2026-05-05 02:26 1.96141 -77.54715 12033 ft 295 kts 264°
2026-05-05 02:26 1.95565 -77.56646 12039 ft 291 kts 236°
2026-05-05 02:26 1.94217 -77.58107 12036 ft 285 kts 211°
2026-05-05 02:26 1.92429 -77.58901 12051 ft 281 kts 189°
2026-05-05 02:27 1.90508 -77.59022 12051 ft 276 kts 170°
2026-05-05 02:27 1.88685 -77.58489 12055 ft 273 kts 150°
2026-05-05 02:27 1.87201 -77.57347 12048 ft 270 kts 128°
2026-05-05 02:27 1.86303 -77.55724 12049 ft 268 kts 105°
2026-05-05 02:28 1.85897 -77.53904 12051 ft 268 kts 101°
2026-05-05 02:28 1.85561 -77.52069 12053 ft 268 kts 100°
2026-05-05 02:28 1.85246 -77.50228 12069 ft 269 kts 100°
2026-05-05 02:28 1.84956 -77.48380 12068 ft 269 kts 95°
2026-05-05 02:29 1.85216 -77.46545 12064 ft 270 kts 69°
2026-05-05 02:29 1.85827 -77.45456 12066 ft 273 kts 54°
2026-05-05 02:29 1.87831 -77.43934 12069 ft 280 kts 24°
2026-05-05 02:29 1.89103 -77.43582 12066 ft 283 kts
2026-05-05 02:30 1.91698 -77.43860 12071 ft 290 kts 341°
2026-05-05 02:30 1.93429 -77.44896 12068 ft 293 kts 317°
2026-05-05 02:30 1.94580 -77.46562 12060 ft 295 kts 290°
2026-05-05 02:30 1.95099 -77.48547 12056 ft 296 kts 282°
2026-05-05 02:31 1.95382 -77.49908 12053 ft 296 kts 281°
2026-05-05 02:31 1.95774 -77.51929 12057 ft 296 kts 280°
2026-05-05 02:31 1.96121 -77.53956 12027 ft 296 kts 274°
2026-05-05 02:31 1.95877 -77.55968 12033 ft 292 kts 246°
2026-05-05 02:32 1.94792 -77.57649 12026 ft 288 kts 221°
2026-05-05 02:32 1.93178 -77.58795 12044 ft 284 kts 201°
2026-05-05 02:32 1.91300 -77.59296 12039 ft 278 kts 180°
2026-05-05 02:32 1.89433 -77.59069 12044 ft 274 kts 158°
2026-05-05 02:33 1.87793 -77.58149 12043 ft 271 kts 136°
2026-05-05 02:33 1.86640 -77.56688 12041 ft 269 kts 115°
2026-05-05 02:33 1.86066 -77.54917 12041 ft 269 kts 103°
2026-05-05 02:33 1.85697 -77.53087 12042 ft 268 kts 100°
2026-05-05 02:34 1.85386 -77.51250 12063 ft 268 kts 100°
2026-05-05 02:34 1.85079 -77.49403 12068 ft 276 kts 100°
2026-05-05 02:34 1.84734 -77.47460 12064 ft 289 kts 101°
2026-05-05 02:34 1.84372 -77.45474 12063 ft 292 kts 101°
2026-05-05 02:35 1.84007 -77.43484 12061 ft 291 kts 101°
2026-05-05 02:35 1.83641 -77.41487 12062 ft 293 kts 101°
2026-05-05 02:35 1.83275 -77.39489 12058 ft 292 kts 101°
2026-05-05 02:35 1.82913 -77.37498 11791 ft 290 kts 101°
2026-05-05 02:36 1.82557 -77.35521 11450 ft 288 kts 101°
2026-05-05 02:36 1.82203 -77.33554 11120 ft 287 kts 101°
2026-05-05 02:36 1.81849 -77.31592 10809 ft 286 kts 101°
2026-05-05 02:36 1.81501 -77.29658 10651 ft 278 kts 102°
2026-05-05 02:37 1.80906 -77.27875 10530 ft 266 kts 120°
2026-05-05 02:37 1.79739 -77.26491 10415 ft 258 kts 141°
2026-05-05 02:37 1.78186 -77.25669 10320 ft 251 kts 162°
2026-05-05 02:37 1.76510 -77.25281 10212 ft 244 kts 165°
2026-05-05 02:38 1.74871 -77.24918 10042 ft 239 kts 165°
2026-05-05 02:38 1.73254 -77.24560 9777 ft 237 kts 165°
2026-05-05 02:38 1.71648 -77.24201 9502 ft 235 kts 165°
2026-05-05 02:38 1.70100 -77.23857 9379 ft 227 kts 165°
2026-05-05 02:39 1.68572 -77.23517 9188 ft 224 kts 165°
2026-05-05 02:39 1.67049 -77.23177 8909 ft 224 kts 165°
2026-05-05 02:39 1.65523 -77.22860 8874 ft 225 kts 170°
2026-05-05 02:39 1.63954 -77.22804 8883 ft 228 kts 182°
2026-05-05 02:40 1.62381 -77.23072 8900 ft 230 kts 191°
2026-05-05 02:40 1.60833 -77.23472 8896 ft 230 kts 193°
2026-05-05 02:40 1.59284 -77.23888 8896 ft 230 kts 192°
2026-05-05 02:40 1.57734 -77.24302 8897 ft 231 kts 192°
2026-05-05 02:41 1.56184 -77.24713 8890 ft 229 kts 193°
2026-05-05 02:41 1.54672 -77.25115 8786 ft 224 kts 193°
2026-05-05 02:41 1.53130 -77.25523 8308 ft 231 kts 192°
2026-05-05 02:41 1.51592 -77.25932 7981 ft 225 kts 192°
2026-05-05 02:42 1.50099 -77.26328 7695 ft 219 kts 193°
2026-05-05 02:42 1.48669 -77.26708 7540 ft 206 kts 194°
2026-05-05 02:42 1.47311 -77.27068 7263 ft 197 kts 195°
2026-05-05 02:42 1.46054 -77.27401 7021 ft 178 kts 195°
2026-05-05 02:43 1.44900 -77.27707 6782 ft 167 kts 194°
2026-05-05 02:43 1.43799 -77.27999 6578 ft 161 kts 196°
2026-05-05 02:43 1.42719 -77.28286 6360 ft 159 kts 190°
2026-05-05 02:43 1.41668 -77.28567 6145 ft 155 kts 194°
2026-05-05 02:44 1.40625 -77.28841 5904 ft 160 kts 194°
2026-05-05 02:44 1.39508 -77.29147 6122 ft 177 kts 195°
2026-05-05 02:44 1.38280 -77.29528 6886 ft 193 kts 201°